STARLINK-35982 (66828 NORAD) Tracking and Keplerian Element Data

This shows tracking and keplerian element data for the satellite.

Feedback or suggestion? Click here.




ElementValue
Catalog66828
NameSTARLINK-35982
Epoch Orbit410
Epoch Day354.25003472
Epoch Year2025
RAAN177.8283
Inclination69.9997
Eccentricity0.0003098
Argument of Perigee268.3185
Mean Anonmoly317.5483
Mean Motion15.52492872
Decay Rate0.00031915
L11 66828U 25280H 25354.25003472 .00031915 00000+0 51990-3 0 9994
L22 66828 69.9997 177.8283 0003098 268.3185 317.5483 15.52492872 4101



Live tracking and technical data element details for STARLINK-35982 (NORAD 66828). STARLINK-35982 can be tracked NOW for your location showing map with azimuth and elevation plus other details from your city location.







IsCatalogInMostPopularTable: catalog: 66828, numindb: 17
Update: records affected: 1



GetName: 66828 STARLINK-35982

Hit Count: updated at: Mon, 20 Apr 2026 09:39:43 GMT